TimeCDT,TemperatureF,Dew PointF,Humidity,Sea Level PressureIn,VisibilityMPH,Wind Direction,Wind SpeedMPH,Gust SpeedMPH,PrecipitationIn,Events,Conditions,WindDirDegrees,DateUTC
12:53 AM,79.0,72.0,79,29.91,10.0,Calm,Calm,-,N/A,,Clear,0,2013-08-28 05:53:00
1:53 AM,77.0,72.0,84,29.91,10.0,Calm,Calm,-,N/A,,Clear,0,2013-08-28 06:53:00
2:53 AM,75.9,72.0,87,29.91,10.0,NNE,4.6,-,N/A,,Clear,20,2013-08-28 07:53:00
3:53 AM,75.0,71.1,87,29.92,10.0,NNE,3.5,-,N/A,,Clear,20,2013-08-28 08:53:00
4:53 AM,73.9,71.1,91,29.92,10.0,Calm,Calm,-,N/A,,Clear,0,2013-08-28 09:53:00
5:53 AM,73.0,71.1,93,29.93,10.0,NNE,5.8,-,N/A,,Partly Cloudy,30,2013-08-28 10:53:00
6:53 AM,73.0,70.0,90,29.95,8.0,NE,3.5,-,N/A,,Partly Cloudy,40,2013-08-28 11:53:00
7:53 AM,75.9,71.1,85,29.97,9.0,East,4.6,-,N/A,,Mostly Cloudy,90,2013-08-28 12:53:00
8:53 AM,77.0,71.1,82,29.97,10.0,East,5.8,-,N/A,,Mostly Cloudy,80,2013-08-28 13:53:00
9:53 AM,82.0,72.0,71,29.99,10.0,East,5.8,-,N/A,,Scattered Clouds,80,2013-08-28 14:53:00
10:53 AM,84.9,72.0,65,29.99,10.0,East,6.9,-,N/A,,Scattered Clouds,90,2013-08-28 15:53:00
11:53 AM,88.0,69.1,53,30.00,10.0,ESE,11.5,-,N/A,,Scattered Clouds,110,2013-08-28 16:53:00
12:53 PM,89.1,66.0,46,29.99,10.0,SE,10.4,16.1,N/A,,Scattered Clouds,140,2013-08-28 17:53:00
1:53 PM,90.0,62.1,39,29.98,10.0,South,6.9,-,N/A,,Mostly Cloudy,170,2013-08-28 18:53:00
2:53 PM,89.1,60.1,38,29.99,10.0,Calm,Calm,-,N/A,,Mostly Cloudy,0,2013-08-28 19:53:00
3:53 PM,91.0,59.0,34,29.97,10.0,ENE,8.1,-,N/A,,Mostly Cloudy,70,2013-08-28 20:53:00
4:53 PM,89.1,64.9,45,29.96,10.0,SE,8.1,-,N/A,,Mostly Cloudy,140,2013-08-28 21:53:00
5:53 PM,88.0,66.9,49,29.97,10.0,SE,6.9,-,N/A,,Overcast,130,2013-08-28 22:53:00
6:53 PM,86.0,69.1,57,29.97,10.0,SE,6.9,-,N/A,,Mostly Cloudy,140,2013-08-28 23:53:00
7:53 PM,84.0,70.0,63,29.97,10.0,SE,6.9,-,N/A,,Scattered Clouds,130,2013-08-29 00:53:00
8:53 PM,82.0,71.1,69,29.98,10.0,SE,5.8,-,N/A,,Scattered Clouds,130,2013-08-29 01:53:00
9:53 PM,81.0,71.1,72,29.99,9.0,SE,6.9,-,N/A,,Scattered Clouds,130,2013-08-29 02:53:00
10:53 PM,80.1,71.1,74,29.99,9.0,SE,6.9,-,N/A,,Scattered Clouds,130,2013-08-29 03:53:00
11:53 PM,78.1,72.0,81,29.99,9.0,SSE,4.6,-,N/A,,Scattered Clouds,150,2013-08-29 04:53:00